星链-4768 (STARLINK-4768 )

导读

STARLINK-4768是美国太空探索技术公司(SpaceX)星链(Starlink)星座中的一颗卫星,于2022年9月11日发射升空,属于星链组网卫星,承担低轨卫星互联网通信任务,服务全球高速互联网接入需求,运行在近地轨道,推进星链系统的全球覆盖与服务能力建设。

基本信息
目录编号:
53806
目录名称:
STARLINK-4768
国际标识:
2022-111AK
轨道中心:
EARTH
卫星名称:
星链-4768
卫星全名:
星链-4768 (STARLINK-4768 )
卫星状态:
在轨 (已飞行1454 天)
发射日期:
2022-09-11 UTC
国别 :
美国 (US)
星等 :
--
轨道信息
数据来源 国际轨道数据 AOE轨道数据
星历时间 2026-09-04T03:08:38+0800
14小时前
查看轨道信息
2026-09-03T02:00:00+0800
1天前
查看轨道信息
半长轴 6837.857km 6837.863km
偏心率 0.0001352 0.0001399
轨道倾角 53.161° 53.158°
近地点辐角 95.123° 90.347°
升交点赤经 164.190° 169.096°
平近点角 264.993° 235.629°
近地点 458.795km 458.769km
远地点 460.645km 460.683km
周期 93.786分钟 93.786分钟
每日圈数 15.354043 15.354025
详细信息
固有亮度:
5
最大亮度:
2.5
卫星平台:
Starlink v1.5
覆盖范围:
全球
运营商:
太空探索技术公司
运营商所在国:
美国
制造商(研发单位):
太空探索技术公司
制造商所在国:
美国
使用方式:
暂无
卫星简介
星链(Starlink)计划是由太空探索技术公司(SpaceX)提出的一个巨型低轨卫星互联网星座项目,计划在2019年至2024年间在太空搭建由约1.2万颗卫星组成的“星链”网络,其中1584颗将部署在地球上空550千米处的近地轨道,并从2020年开始工作。该卫星仍在工作。
2D轨道图
3D轨道图
轨道高度分析图
轨道倾角分析图
轨道综合分析图
查看轨道综合分析图
交会数据列表
事件ID 空间交会对象 最接近时刻(TCA) 交会距离 交会风险概率(CRP) 交会风险指数(CRI) 操作
CDM_260906-004305-380606-937721
2026-09-06T
00:43:33+0000
0.266 km
中距离
4.034735E-4 高风险 0.87
CDM_260906-195905-380606-995021
2026-09-06T
19:59:44+0000
0.885 km
远距离
3.150338E-5 中风险 0.65
CDM_260906-182605-380606-995021
2026-09-06T
18:26:00+0000
1.207 km
极远距离
1.080477E-5 中风险 0.56
CDM_260905-191505-380606-937721
2026-09-05T
19:15:29+0000
1.520 km
极远距离
3.401783E-6 低风险 0.46
CDM_260904-174304-309905-380621
2026-09-04T
17:43:59+0000
2.531 km
极远距离
1.714188E-6 低风险 0.4
CDM_260828-164605-380606-244621
2026-08-28T
16:46:05+0000
2.042 km
极远距离
1.592816E-6 低风险 0.39
CDM_260905-061005-380606-614821
2026-09-05T
06:10:50+0000
2.784 km
极远距离
1.291961E-6 低风险 0.37
CDM_260905-001605-380606-536321
2026-09-05T
00:16:00+0000
2.797 km
极远距离
1.154861E-6 低风险 0.36
CDM_260904-164505-380606-855221
2026-09-04T
16:45:14+0000
2.815 km
极远距离
1.054936E-6 低风险 0.35
CDM_260905-174105-380606-937721
2026-09-05T
17:41:46+0000
2.548 km
极远距离
9.782908E-7 极低风险 0.35